Location: Zagreb
(45.8150°N, 15.9819°E)
Time: 17:07:08
(UTC+02:00)

Tiangong - Visible Passes

Search period start: 04 August 2021 00:00
Search period end: 14 August 2021 00:00
Orbit: 373 x 386 km, 41.5° (Epoch: 04 August)

Date Brightness Start Highest point End Pass type
(mag) Time Alt. Az. Time Alt. Az. Time Alt. Az.
09 Aug 3.5 04:20:21 11° SSE 04:21:11 12° SSE 04:22:23 10° SE visible
10 Aug 2.7 04:53:54 12° SSW 04:56:04 23° SSE 04:58:38 10° ESE visible
11 Aug 3.2 03:55:19 16° SE 03:55:19 16° SE 03:56:57 10° ESE visible
12 Aug 2.2 04:28:49 24° SSW 04:29:48 29° SSE 04:32:34 10° ESE visible
13 Aug 3.5 03:30:13 15° ESE 03:30:13 15° ESE 03:31:02 10° ESE visible
13 Aug 1.8 05:02:19 13° WSW 05:04:50 36° S 05:07:46 10° ESE visible
